[[{"header":{"parameterUnit":"m.s-1","parameterCategory":1,"la1":30.2991,"la2":30.254,"lo1":-89.0895,"lo2":-89.0444,"dy":0.0017,"dx":0.0017,"nx":28,"ny":28,"refTime":"2023-06-19T21:00:00:Z","depth":0,"parameterNumber":2,"parameterNumberName":"U-component_of_WINDS"},"data":[0,0,0,0,0,0,0,0,0,0,0,0,0,0,0,0,0,0,0,0,0,0,0,0,0,0,0,0,0,0,0,0,0,0,0,0,0,0,0,0,0,0,0,0,0,0,0,0,0,0,0,0,0,0,0,0,0,0,11.4468,11.447,0,11.4701,11.4704,11.4706,11.4492,11.4483,11.4475,11.4466,11.4705,11.4719,11.4733,0,0,0,0,0,0,0,0,0,0,0,0,0,11.3835,11.3847,11.4467,11.447,11.4473,11.4701,11.4704,11.4707,11.4493,11.4483,11.4472,11.4462,11.47,11.4717,11.4735,0,0,0,0,0,0,0,0,0,0,0,0,0,11.4093,11.3852,11.4467,11.4394,11.439,11.47,11.4704,11.4708,11.4496,11.4483,11.447,11.4457,11.4695,11.4716,11.4737,11.5131,0,0,11.4803,11.4813,0,0,0,0,0,0,0,0,11.4079,11.4117,11.4402,11.44,11.4396,11.4554,11.4568,11.485,11.4499,11.4456,11.4466,11.4451,11.4665,11.4689,11.4761,11.5142,11.5152,11.4805,11.4818,11.4828,11.4834,0,0,0,0,0,0,0,11.4061,11.4105,11.456,11.4406,11.4403,11.4349,11.4371,11.462,11.4631,11.4458,11.4443,11.4474,11.4661,11.4741,11.4765,11.5156,11.4805,11.4824,11.4837,11.4846,11.5869,11.5882,0,0,0,0,0,0,11.4051,11.4092,11.4552,11.4567,11.4202,11.4371,11.4396,11.4516,11.4627,11.4632,11.4485,11.4463,11.471,11.474,11.4773,11.5239,11.4828,11.4848,11.486,11.5855,11.5872,11.5887,0,0,0,0,0,0,11.4038,11.4094,11.4543,11.4325,11.4378,11.4396,11.4533,11.4528,11.4607,11.4647,11.4648,11.4564,11.4701,11.4742,11.5043,11.5244,11.4858,11.4877,11.5838,11.586,11.588,11.6176,0,0,0,0,0,0,11.4021,11.4091,11.4241,11.433,11.4391,11.4811,11.4545,11.4542,11.4645,11.4619,11.4722,11.4727,11.4694,11.5012,11.5064,11.5267,11.4894,11.582,11.5848,11.5873,11.6149,11.6205,11.6253,0,0,0,0,0,11.3999,11.4316,11.425,11.4307,11.4579,11.4823,11.4857,11.4813,11.4662,11.4813,11.4838,11.4723,11.5214,11.5044,11.5102,11.5314,11.5807,11.584,11.5871,11.6125,11.6194,11.6252,0,0,0,0,0,0,11.425,11.4326,11.4254,11.4609,11.4711,11.4786,11.4975,11.4888,11.5035,11.5005,11.4944,11.4969,11.5286,11.533,11.514,11.5699,11.5486,11.5531,11.5659,11.5725,11.5777,11.5759,11.4912,0,0,0,0,0,11.4347,11.4539,11.4594,11.4902,11.4957,11.4958,11.5063,11.502,11.5123,11.5165,11.5212,11.5317,11.5494,11.5612,11.5777,11.6154,11.6172,11.6328,11.638,11.6423,11.6463,11.6663,11.6732,11.5992,11.5992,11.5991,0,0,11.4548,11.4613,11.4738,11.4954,11.5028,11.5228,11.4996,11.5217,11.5364,11.5198,11.5485,11.5524,11.5636,11.5976,11.6128,11.6022,11.6671,11.6464,11.6498,11.6514,11.6703,11.6773,11.6835,11.6014,11.601,11.6007,0,0,11.5017,11.5087,11.5349,11.5428,11.5543,11.5542,11.5605,11.5694,11.5713,11.6,11.5879,11.6053,11.636,11.6444,11.6527,11.7027,11.6926,11.7083,11.7357,11.7553,11.7611,11.7662,11.7839,11.7903,11.7122,11.7123,11.7124,0,11.5253,11.5548,11.5496,11.5726,11.5823,11.5683,11.5948,11.6027,11.6191,11.6261,11.614,11.6522,11.6587,11.6944,11.7066,11.7139,11.7208,11.7071,11.7607,11.7658,11.7705,11.7872,11.7939,11.7141,11.7139,11.7137,11.7136,0,11.5832,11.6039,11.6238,11.6399,11.6519,11.6766,11.6749,11.6877,11.6824,11.6835,11.7128,11.7202,11.7379,11.746,11.7411,11.7811,11.7741,11.7616,11.7399,11.7794,11.7951,11.8015,11.7167,11.7161,11.7155,11.7151,0,0,11.6465,11.6593,11.6667,11.6737,11.6854,11.7012,11.7252,11.7425,11.7535,11.7653,11.7851,11.8114,11.7997,11.8092,11.8051,11.8223,11.8612,11.8075,11.8077,11.8171,11.9054,11.9147,11.9222,11.8546,11.8558,11.8568,11.9044,0,11.6936,11.7352,11.7312,11.7707,11.7897,11.7766,11.7974,11.8068,11.8084,11.8247,11.8264,11.8451,11.8284,11.834,11.8505,11.853,11.8788,11.8495,11.8729,11.8738,11.8703,11.9304,11.9404,11.985,11.9105,11.9115,11.9123,0,11.7541,11.768,11.8095,11.818,11.8258,11.8447,11.8601,11.8759,11.8861,11.8861,11.8967,11.8896,11.9135,11.8915,11.9243,11.9045,11.9138,11.9165,11.9181,11.92,11.8953,11.9338,11.9991,12.0057,11.9219,11.9211,11.9204,0,11.7959,11.8249,11.8534,11.8599,11.8707,11.8842,11.8893,11.8983,11.9089,11.9224,11.9292,11.9454,11.9542,11.9668,11.9642,11.9484,11.9977,11.9755,11.9982,11.9983,12.0091,12.0084,12.0766,12.0154,12.0153,12.0152,12.0151,0,11.8489,11.8747,11.8723,11.8899,11.9183,11.9134,11.9417,11.9451,11.9532,11.9711,11.9608,11.9778,11.9733,11.9901,11.9882,12.0156,12.0197,12.0202,12.0194,12.0211,12.021,12.027,12.0238,12.017,12.0166,12.0162,12.0159,0,11.9003,11.8998,11.9299,11.9377,11.9402,11.9609,11.9674,11.9839,11.9846,12.0074,12.0124,12.0137,12.0329,12.0315,12.0532,12.0519,12.0857,12.0813,12.0823,12.0812,12.1039,12.1018,12.1783,12.188,12.1207,12.1213,12.1219,0,11.9341,11.9536,11.9635,11.9747,11.9807,11.999,12.0097,12.0056,12.0172,12.0303,12.0452,12.0634,12.0778,12.1091,12.1119,12.1284,12.1241,12.1498,12.1265,12.1276,12.1243,12.1231,12.1249,12.1544,12.1551,12.1557,12.1562,0,11.994,11.9927,12.0087,12.0246,12.0378,12.0501,12.0613,12.0711,12.068,12.0816,12.1011,12.1123,12.1343,12.1526,12.1682,12.1733,12.1644,12.1636,12.1696,12.1715,12.1712,12.1715,12.0945,12.1618,12.1612,12.1608,12.1605,12.1603,12.0375,12.0542,12.0637,12.0817,12.0897,12.1005,12.1162,12.119,12.1352,12.1529,12.1494,12.1713,12.1809,12.201,12.2076,12.2246,12.2153,12.2243,12.2265,12.2287,12.2312,12.1687,12.2275,12.2273,12.2271,12.227,12.2269,0,12.0967,12.1021,12.1188,12.1348,12.149,12.1394,12.1512,12.1637,12.1831,12.1929,12.2072,12.2296,12.2471,12.2513,12.2681,12.2809,12.2772,12.2854,12.2844,12.2856,12.2386,12.2315,12.2881,12.2881,12.2881,12.2881,12.2881,12.2881,12.1291,12.1568,12.1567,12.1882,12.1934,12.2148,12.2224,12.2322,12.2398,12.2653,12.2798,12.2824,12.2899,12.3072,12.3228,12.3235,12.3301,12.34,12.3392,12.2951,12.289,12.2831,12.2765,12.3416,12.3416,12.3847,12.3851,12.3854]},{"header":{"parameterUnit":"m.s-1","parameterCategory":1,"la1":30.2991,"la2":30.254,"lo1":-89.0895,"lo2":-89.0444,"dy":0.0017,"dx":0.0017,"nx":28,"ny":28,"refTime":"2023-06-19T21:00:00:Z","depth":0,"parameterNumber":3,"parameterNumberName":"V-component_of_WINDS"},"data":[0,0,0,0,0,0,0,0,0,0,0,0,0,0,0,0,0,0,0,0,0,0,0,0,0,0,0,0,0,0,0,0,0,0,0,0,0,0,0,0,0,0,0,0,0,0,0,0,0,0,0,0,0,0,0,0,0,0,3.9018,3.9017,0,3.8951,3.895,3.895,3.8883,3.8882,3.8881,3.888,3.8811,3.881,3.8809,0,0,0,0,0,0,0,0,0,0,0,0,0,3.9084,3.9083,3.9018,3.9017,3.9016,3.8951,3.895,3.8949,3.8883,3.8882,3.8881,3.888,3.8812,3.8811,3.8809,0,0,0,0,0,0,0,0,0,0,0,0,0,3.904,3.9083,3.9018,3.8975,3.8971,3.8951,3.895,3.8949,3.8883,3.8882,3.888,3.8879,3.8812,3.8811,3.8809,3.8827,0,0,3.8805,3.8804,0,0,0,0,0,0,0,0,3.9043,3.9038,3.8982,3.8978,3.8973,3.8924,3.8948,3.8908,3.8883,3.8916,3.888,3.8878,3.885,3.8845,3.8836,3.8824,3.8821,3.8805,3.8804,3.8803,3.8803,0,0,0,0,0,0,0,3.9046,3.904,3.8991,3.8982,3.8976,3.8958,3.895,3.894,3.8891,3.8913,3.8908,3.8901,3.8847,3.8837,3.8834,3.882,3.8805,3.8803,3.8802,3.8802,3.8814,3.8815,0,0,0,0,0,0,3.9056,3.9043,3.8994,3.8989,3.9005,3.8958,3.8949,3.8941,3.8891,3.8883,3.8903,3.8898,3.884,3.8835,3.8831,3.8845,3.8803,3.8802,3.8801,3.8813,3.8814,3.8815,0,0,0,0,0,0,3.9057,3.9052,3.8996,3.9015,3.9006,3.8958,3.8949,3.894,3.893,3.8883,3.8874,3.8902,3.8839,3.8833,3.8827,3.8842,3.8801,3.88,3.8811,3.8813,3.8815,3.8876,0,0,0,0,0,0,3.906,3.9053,3.906,3.9016,3.9006,3.8995,3.895,3.894,3.8928,3.8922,3.888,3.8872,3.8838,3.883,3.8826,3.8839,3.8798,3.881,3.8812,3.8814,3.8872,3.8879,3.8886,0,0,0,0,0,3.9062,3.9081,3.9061,3.9055,3.9014,3.8996,3.899,3.8951,3.893,3.8936,3.8904,3.8873,3.8841,3.883,3.8825,3.8838,3.8808,3.8811,3.8814,3.8869,3.8878,3.8885,0,0,0,0,0,0,3.913,3.9075,3.9052,3.9057,3.9032,3.8985,3.8992,3.8962,3.8943,3.8938,3.8889,3.888,3.8879,3.8858,3.8847,3.885,3.882,3.8822,3.8864,3.8872,3.8878,3.8883,3.8797,0,0,0,0,0,3.9145,3.9136,3.9088,3.9097,3.9086,3.9041,3.9032,3.9003,3.8975,3.8964,3.8933,3.8906,3.8889,3.8879,3.8862,3.8869,3.8856,3.8875,3.8881,3.8887,3.8889,3.8887,3.8893,3.8824,3.8824,3.8824,0,0,3.9177,3.9146,3.9144,3.911,3.9087,3.9077,3.9033,3.9025,3.9016,3.8963,3.8955,3.893,3.8897,3.8897,3.8895,3.8879,3.8905,3.8891,3.8896,3.8894,3.889,3.8897,3.8902,3.8826,3.8826,3.8825,0,0,3.923,3.9207,3.921,3.9187,3.9152,3.9122,3.9122,3.9079,3.906,3.9052,3.901,3.8998,3.8972,3.8948,3.8933,3.8972,3.8941,3.8968,3.9003,3.9001,3.9006,3.9011,3.9022,3.9027,3.897,3.897,3.897,0,3.9275,3.9259,3.9216,3.9209,3.9194,3.9144,3.9145,3.9125,3.9086,3.9076,3.9059,3.9021,3.8996,3.8987,3.8996,3.8986,3.8983,3.8973,3.9009,3.9013,3.9017,3.9027,3.9031,3.8974,3.8973,3.8973,3.8972,0,3.9313,3.9302,3.9309,3.9271,3.9257,3.9255,3.9209,3.92,3.9171,3.9142,3.9131,3.9098,3.9071,3.9067,3.904,3.9053,3.9043,3.9019,3.8987,3.9027,3.9035,3.9039,3.8978,3.8977,3.8976,3.8975,0,0,3.9408,3.9344,3.9347,3.9328,3.9284,3.9274,3.9268,3.924,3.9232,3.9206,3.9197,3.9174,3.9149,3.9132,3.9101,3.91,3.9128,3.9074,3.9072,3.9083,3.9136,3.9154,3.916,3.9108,3.9108,3.9109,3.9138,0,3.9452,3.9438,3.9398,3.9396,3.9383,3.9333,3.9327,3.9298,3.927,3.9254,3.9222,3.9205,3.9175,3.9163,3.916,3.9126,3.9138,3.9123,3.9097,3.9097,3.9106,3.9165,3.9185,3.9214,3.9142,3.9142,3.9143,0,3.9502,3.9477,3.9474,3.9426,3.942,3.9415,3.9384,3.9371,3.9336,3.9314,3.9293,3.9258,3.9246,3.9218,3.9199,3.9189,3.9176,3.9157,3.9157,3.9152,3.9122,3.9159,3.9223,3.9227,3.9148,3.9147,3.9147,0,3.9568,3.9535,3.9527,3.9512,3.9458,3.9455,3.9432,3.9396,3.938,3.9353,3.9342,3.9315,3.9299,3.9277,3.9234,3.9218,3.9219,3.9188,3.9199,3.92,3.9201,3.9201,3.9262,3.9195,3.9195,3.9195,3.9195,0,3.962,3.962,3.9556,3.9551,3.9547,3.9499,3.9497,3.9469,3.9436,3.9423,3.9379,3.9367,3.9313,3.9294,3.9261,3.9248,3.9242,3.9222,3.9213,3.9226,3.9228,3.9215,3.9211,3.9196,3.9196,3.9196,3.9196,0,3.9694,3.9652,3.964,3.9588,3.9575,3.9574,3.9529,3.9521,3.9488,3.9473,3.9466,3.9415,3.939,3.9345,3.9309,3.9286,3.9279,3.9265,3.9291,3.9285,3.9298,3.9296,3.9351,3.9354,3.9289,3.9289,3.929,0,3.973,3.9728,3.9675,3.9663,3.9641,3.9623,3.9606,3.9558,3.9542,3.9499,3.9496,3.9468,3.9443,3.9405,3.9364,3.9334,3.9317,3.9339,3.9313,3.9324,3.9314,3.9314,3.9312,3.9344,3.9345,3.9346,3.9347,0,3.9796,3.9774,3.9753,3.9722,3.9703,3.9678,3.9649,3.9642,3.9586,3.957,3.9544,3.9524,3.9485,3.9457,3.942,3.9394,3.936,3.9355,3.9355,3.9367,3.9382,3.9371,3.9305,3.9354,3.9353,3.9353,3.9352,3.9352,3.985,3.9844,3.9805,3.9781,3.9754,3.9727,3.9716,3.9681,3.9659,3.9623,3.9596,3.9571,3.9531,3.9479,3.9455,3.9433,3.9417,3.9419,3.9419,3.942,3.9423,3.9386,3.9426,3.9426,3.9426,3.9426,3.9425,0,3.9911,3.9883,3.9862,3.9822,3.9802,3.9772,3.9738,3.9723,3.9701,3.9668,3.9643,3.9611,3.9582,3.9537,3.9504,3.9495,3.9478,3.9487,3.9487,3.948,3.944,3.9442,3.9501,3.9501,3.9501,3.9501,3.9501,3.9501,3.9941,3.9929,3.9902,3.9874,3.9845,3.982,3.9803,3.9777,3.9749,3.9715,3.9691,3.9661,3.9622,3.9584,3.9555,3.9542,3.9531,3.9545,3.9527,3.9491,3.9484,3.9477,3.9478,3.9544,3.9544,3.9569,3.9569,3.9569]}]]